Kosmos-2074

operational
NORAD ID: 20577 Int'l Des: 1990-036 Owner: VMF Country: SU
LEOCIRCULARPOLAR

About Kosmos-2074

Description loading...

Live Position

Loading 3D Globe...

Upcoming Passes

Altitude History

Altitude vs Time

uPlot chart will show altitude changes over time

Two-Line Element Set

1 20577U 90036A 26022.51850671 .00000098 00000-0 86866-4 0 9999
2 20577 82.9406 214.0583 0025720 253.3327 125.1128 13.74867238793712
Epoch: Jan 22, 2026 • Age: 16 hours

Current Status

Altitude 1001.8 km
Velocity 7.35 km/s
Sub-Earth Point 34.31°N, 32.26°E
Launch Date Apr 20, 1990
Age 35.7 years
Type other

Technical Details

Classification Payload
Mass 800.00 kg
Dry Mass 800.00 kg
Total Mass 800.00 kg
Length 5.00 m
Diameter 2.10 m
Span 17.00 m
Shape Cyl + Ant
Manufacturer POL
Bus Type KAUR-1 11F627
Phase Status In Orbit
Owner/State VMF/SU

Large Constellations

Loading constellations...